Flag for Canada

Past Weather in 45°44'45.9"N, 73°38'14.6"W, Canada — Yesterday and Last 2 Weeks

Now
82 °F

Partly sunny.


Feels Like: 81 °F
Forecast: 83 / 58 °F
Wind: 14 mph from West

Location: Montreal - Pierre Elliot Trudeau International Aiport

Current Time: Jun 5, 2020 at 3:57:10 pm

Latest Report: Jun 5, 2020 at 2:00 pm


Visibility: 30 mi

Pressure: 29.77 "Hg

Humidity: 37%

Dew Point: 54 °F

Location of 45°44'45.9"N, 73°38'14.6"WLocation

Past Weather in 45°44'45.9"N, 73°38'14.6"W — Graph

°F

45°44'45.9"N, 73°38'14.6"W Temperature Yesterday

Maximum temperature yesterday: 79 °F (at 4:24 pm)
Minimum temperature yesterday: 54 °F (at 2:00 am)
Average temperature yesterday: 67 °F

High & Low Weather Summary for the Past Weeks

 TemperatureHumidityPressure
High97 °F (May 27, 3:00 pm)94% (May 26, 4:00 am)30.22 "Hg (May 26, 4:00 am)
Low37 °F (Jun 1, 5:00 am)14% (May 21, 7:00 pm)29.57 "Hg (Jun 3, 2:00 pm)
Average65 °F60%29.95 "Hg
* Reported May 21 2:00 pm — Jun 5 2:00 pm, 45°44'45.9"N, 73°38'14.6"W. Weather by CustomWeather, © 2020

Note: Actual official high and low records may vary slightly from our data, if they occured in-between our weather recording intervals... More about our weather records

45°44'45.9"N, 73°38'14.6"W Weather History for the Previous 24 Hours

Scroll right to see more
 ConditionsComfort  
Time TempWeatherWind HumidityBarometerVisibility
2:00 pm
Fri, Jun 5
82 °FPartly sunny.14 mph37%29.77 "Hg30 mi
1:00 pm82 °FPassing clouds.13 mph35%29.78 "Hg30 mi
12:00 pm81 °FPassing clouds.15 mph37%29.78 "Hg30 mi
11:00 am77 °FPassing clouds.12 mph51%29.77 "Hg30 mi
10:44 am77 °FPassing clouds.15 mph54%29.78 "Hg30 mi
10:00 am73 °FPassing clouds.7 mph61%29.77 "Hg30 mi
9:00 am70 °FPassing clouds.7 mph60%29.78 "Hg15 mi
8:00 am66 °FScattered clouds.2 mph60%29.79 "Hg15 mi
7:00 am64 °FPartly sunny.2 mph56%29.79 "Hg15 mi
6:00 am59 °FPartly sunny.6 mph68%29.80 "Hg15 mi
5:00 am61 °FPassing clouds.5 mph63%29.79 "Hg15 mi
4:00 am63 °FPassing clouds.5 mph56%29.79 "Hg15 mi
3:00 am64 °FPassing clouds.7 mph52%29.79 "Hg15 mi
2:00 am66 °FPassing clouds.5 mph49%29.80 "Hg15 mi
1:00 am63 °FPartly cloudy.5 mph56%29.81 "Hg15 mi
12:00 am64 °FPassing clouds.7 mph52%29.81 "Hg15 mi
11:00 pm
Thu, Jun 4
66 °FPassing clouds.8 mph52%29.80 "Hg15 mi
10:00 pm68 °FPassing clouds.5 mph53%29.78 "Hg15 mi
9:00 pm72 °FPassing clouds.5 mph47%29.77 "Hg30 mi
8:00 pm75 °FPartly sunny.8 mph41%29.76 "Hg30 mi
7:00 pm77 °FScattered clouds.13 mph36%29.75 "Hg30 mi
6:00 pm79 °FPassing clouds.18 mph32%29.73 "Hg30 mi
5:00 pm77 °FPassing clouds.17 mph54%29.72 "Hg30 mi
4:24 pm79 °FScattered clouds.15 mph45%29.72 "Hg30 mi
4:00 pm77 °FScattered clouds.9 mph54%29.72 "Hg30 mi
3:00 pm73 °FScattered clouds.15 mph61%29.73 "Hg30 mi
Weather by CustomWeather, © 2020

See weather overview

Advertising